Dewpoint
58 58 59 60 61 62 61 62 63 63 63 62 62 63 62 63 63 64 63 64 63 63 63 63 63 63 64 64 63 64 63 64 64 64 63 63 63 63 63 63 62 63 63 63 62 61 61 62 61 60 62 61 61 61 61 61 62 60 59 58 58 60 58 57 54 57 59 60 58 55 56 56 53 54 53 56 57 57 55 57 59 58 54 56 59
57 57 58 59 60 61 61 61 62 62 63 63 62 62 62 63 63 63 63 63 63 63 62 63 63 63 62 62 63 62 63 63 64 63 64 64 64 63 64 63 62 62 64 60 61 60 61 59 58 60 61 60 61 58 58 59 59 58 57 57 55 59 60 54 60 58 57 58 55 55 55 55 52 54 57 58 57 56 54 55 55 54 53 54 56
57 57 58 59 60 60 61 61 61 62 64 63 62 62 63 64 63 63 62 63 64 64 64 64 63 63 63 64 63 63 62 63 64 64 63 63 62 63 62 62 62 61 62 62 60 60 60 60 60 61 61 61 62 60 60 58 56 55 57 57 56 58 57 55 54 53 52 53 55 52 54 54 54 51 53 55 55 54 52 53 52 50 51 54 53
56 57 58 59 60 60 60 60 61 62 62 63 63 63 64 64 63 63 62 64 64 64 63 62 63 63 62 62 62 62 63 65 64 62 63 63 63 63 61 60 60 62 62 61 61 61 61 61 61 62 62 62 62 60 60 59 58 56 56 61 60 61 60 60 56 54 52 51 53 48 51 54 54 51 51 53 54 52 50 51 50 48 49 48 51
55 56 57 58 59 59 60 61 61 61 62 63 63 64 64 64 63 61 63 64 63 63 63 63 63 62 63 62 63 62 63 62 62 63 62 62 59 57 56 56 58 59 61 62 62 62 62 61 60 61 62 61 63 61 59 61 59 57 60 63 59 59 61 60 58 54 53 53 53 53 54 54 52 52 50 49 50 50 48 50 49 47 49 48 45
55 55 56 57 57 58 59 60 60 61 61 62 63 63 64 63 62 63 62 62 62 63 62 61 62 62 62 62 62 61 61 62 61 60 60 59 58 58 57 57 58 57 61 61 60 61 62 61 61 61 61 62 62 61 60 60 57 58 58 61 61 59 60 60 59 57 54 52 55 55 56 54 53 54 51 51 50 47 45 47 48 48 49 49 45
54 54 55 56 56 57 58 60 60 60 61 62 63 62 62 62 62 62 62 63 62 63 62 61 62 62 62 62 62 62 62 61 62 60 59 58 57 57 58 58 58 58 58 60 61 62 62 61 62 62 61 61 61 61 61 61 61 59 60 60 57 61 61 59 57 58 57 54 54 56 55 56 57 55 52 52 52 49 48 47 48 44 49 49 48
53 54 54 55 55 56 57 59 60 61 60 60 61 62 63 62 62 62 62 62 62 62 62 62 62 61 61 61 62 63 62 60 60 59 57 57 56 57 58 59 58 58 59 60 61 62 62 62 61 61 60 59 60 61 62 62 61 61 61 61 59 60 60 59 58 56 56 56 54 54 54 55 55 57 55 53 52 50 48 50 48 48 49 50 50
52 53 53 54 55 56 57 58 60 60 60 60 60 61 61 61 61 62 62 63 62 61 61 61 60 59 60 62 60 61 61 61 59 58 57 55 55 57 57 57 56 57 58 58 60 62 62 63 62 63 60 57 51 53 53 55 63 61 62 62 61 61 59 58 58 55 54 55 54 55 54 54 54 56 53 53 52 52 53 52 50 50 50 50 48
52 52 53 53 54 55 56 57 58 58 59 60 59 60 60 60 61 61 61 61 61 61 60 61 60 60 60 60 58 60 61 60 51 46 47 55 55 55 57 56 55 56 56 56 58 60 63 62 59 54 52 51 48 44 44 45 48 58 61 60 59 59 58 57 55 54 54 53 52 53 52 52 52 55 54 55 56 57 56 54 51 50 50 49 49
52 52 52 53 53 54 55 56 56 57 58 58 58 59 59 59 59 60 60 60 60 60 61 59 60 60 59 59 59 57 58 52 43 42 45 50 54 56 55 55 54 54 55 56 58 60 60 58 57 54 54 51 49 43 42 41 41 42 42 44 48 63 57 55 54 54 51 50 50 51 49 51 54 54 54 55 56 56 53 54 51 52 51 48 48
51 51 51 52 53 53 53 54 54 55 56 56 56 57 57 57 57 58 58 58 58 58 59 58 59 59 59 58 58 58 56 44 41 43 46 49 53 56 55 54 55 55 55 55 57 58 58 58 58 58 57 55 54 51 47 42 41 42 42 42 41 40 43 58 57 54 55 52 52 52 52 53 55 54 53 54 54 54 54 53 52 50 50 48 51
50 50 51 51 52 52 52 51 51 51 52 53 54 54 54 53 54 54 55 55 56 56 55 57 57 57 58 56 55 55 54 41 42 43 46 47 51 53 52 55 54 55 56 55 55 57 58 58 60 59 56 57 55 54 53 52 45 45 45 46 45 45 43 42 44 61 56 55 54 54 53 54 53 53 55 54 54 53 53 50 52 52 52 51 49
50 50 50 50 51 51 51 50 49 49 50 50 51 50 51 51 52 53 53 53 53 53 52 53 54 55 56 55 54 53 51 43 40 42 45 47 47 49 53 57 57 57 57 58 59 58 58 58 57 57 58 57 57 56 55 55 56 58 58 56 55 56 48 48 48 49 54 57 56 56 57 59 57 56 55 56 56 55 54 53 55 55 55 55 56
49 50 50 50 50 50 50 49 48 48 48 49 49 49 49 49 49 49 51 51 50 50 51 51 51 53 54 55 53 52 48 40 40 41 43 46 48 52 61 61 60 60 59 59 59 58 57 58 58 58 59 58 61 61 59 58 58 59 59 59 59 57 56 55 56 58 59 59 59 59 59 59 59 59 58 58 59 60 60 60 59 58 57 56 56
46 48 49 49 49 49 49 48 48 47 47 48 48 48 48 49 48 49 49 49 49 50 49 50 50 50 52 52 52 51 48 40 41 41 42 46 49 59 60 59 59 58 58 57 58 58 58 60 59 58 58 58 48 40 48 61 57 57 57 58 57 55 52 44 41 42 48 54 55 55 52 49 44 52 52 55 57 58 56 57 57 56 56 54 56
46 47 48 48 48 48 48 47 47 47 47 47 47 48 48 48 48 49 48 48 47 47 47 47 48 48 48 49 49 48 47 41 39 41 42 44 52 58 57 56 55 54 53 52 51 50 50 52 57 58 58 57 43 39 41 41 57 56 56 57 57 56 55 52 43 40 40 40 39 39 39 39 39 40 40 40 49 55 56 55 55 55 52 50 50
45 46 47 47 48 47 47 47 47 46 46 46 46 47 47 47 47 47 47 47 46 46 46 46 46 46 46 46 46 46 45 42 38 40 41 44 49 54 52 52 51 49 49 50 49 48 47 47 50 51 54 52 38 41 42 52 57 56 55 54 54 55 55 54 52 48 40 41 40 40 40 41 41 41 41 41 42 48 56 52 53 51 49 49 46
45 46 46 47 47 47 47 47 46 46 46 46 46 46 46 46 46 46 46 46 46 46 45 45 45 44 44 44 45 45 44 42 38 39 41 43 50 52 51 50 51 51 50 51 51 50 49 45 42 41 43 42 38 39 41 49 58 57 56 54 54 54 54 54 53 53 53 54 53 52 49 48 51 50 48 43 44 49 53 53 53 51 49 48 49
45 45 46 47 47 47 47 47 46 45 45 45 45 45 45 46 46 45 45 44 44 44 45 44 44 44 44 43 43 43 44 43 40 38 39 41 45 52 51 51 50 50 50 51 51 51 49 48 43 37 37 38 38 38 39 41 54 56 56 54 53 53 54 54 55 54 54 52 51 50 50 50 51 51 50 50 51 49 50 51 52 52 48 46 45
46 46 46 46 46 46 46 46 46 46 45 45 45 45 45 44 44 44 44 44 45 44 44 44 43 43 43 44 43 42 42 43 41 37 38 39 41 47 51 51 51 52 51 50 49 49 48 47 45 38 37 38 38 39 39 40 43 54 54 54 53 52 50 52 52 48 52 50 49 49 49 48 49 49 47 47 47 47 47 49 50 50 49 45 41
45 44 44 44 45 45 45 45 46 45 45 45 45 44 45 45 45 44 43 43 43 42 42 42 42 43 44 43 43 43 42 41 43 38 37 38 38 41 48 48 50 50 49 48 47 46 46 45 44 38 37 38 38 39 39 40 41 47 46 40 41 43 51 51 51 50 49 48 47 46 46 45 46 46 45 46 44 44 45 45 45 46 46 46 44
43 43 44 44 44 44 44 45 44 44 45 45 44 44 44 43 44 45 46 43 42 42 42 42 43 43 43 44 43 44 43 42 39 40 37 37 37 38 39 43 42 49 47 46 46 45 45 44 41 38 37 37 37 37 38 39 41 41 38 39 40 41 43 46 45 45 44 43 44 43 43 43 43 43 42 43 44 45 44 45 44 43 43 43 43
42 42 42 43 43 42 41 42 43 43 43 43 43 43 43 43 44 44 43 43 41 41 40 41 40 40 41 43 43 44 44 44 40 38 39 36 37 37 38 38 41 45 46 46 46 46 45 43 39 37 37 37 37 37 37 38 40 37 38 39 39 39 39 39 39 41 39 38 39 40 41 40 40 40 41 43 43 44 44 44 44 43 43 42 41
41 41 40 40 41 40 40 40 40 40 40 40 40 39 40 40 39 41 42 41 39 38 39 39 39 40 40 41 43 44 44 44 44 41 39 38 37 36 37 37 38 40 44 44 42 41 37 36 37 37 38 38 38 39 39 39 37 38 38 40 43 40 40 37 38 39 37 37 38 40 40 41 42 43 43 43 43 43 43 43 43 42 42 41 42
36 35 35 36 35 34 35 36 37 39 39 37 38 38 39 39 39 39 39 38 38 38 38 37 36 38 39 39 39 41 43 43 43 43 42 42 40 38 37 37 38 37 38 39 36 36 36 37 38 39 40 42 46 45 44 45 39 39 39 42 45 41 39 38 38 38 37 39 38 38 38 39 40 43 43 43 41 39 39 39 38 37 39 39 38
34 34 33 32 35 35 36 35 35 37 38 37 37 37 36 37 38 38 38 39 39 38 38 38 37 36 36 36 36 37 39 41 43 43 44 45 45 44 44 44 41 41 44 43 41 41 40 40 40 38 38 37 39 39 41 41 44 43 42 42 42 43 42 42 40 39 38 37 37 37 40 39 41 41 39 38 39 39 40 38 37 37 37 36 35
34 33 33 33 33 33 35 33 34 34 35 35 35 37 37 37 36 37 37 37 37 38 39 38 38 39 38 39 38 37 38 37 36 37 39 40 42 42 43 44 43 44 44 43 43 43 43 39 43 46 47 46 45 43 42 42 41 41 42 41 41 41 40 40 40 41 40 40 39 39 40 40 38 38 37 37 38 37 38 37 37 36 35 36 35
34 34 33 33 33 33 34 34 33 33 34 35 35 35 36 37 37 37 39 37 37 37 37 37 38 39 40 38 37 39 38 36 36 35 36 34 35 41 42 41 42 42 38 36 43 42 42 42 41 41 41 39 39 42 41 40 39 41 43 42 41 41 41 41 41 40 40 40 40 39 38 38 37 37 35 36 37 36 37 36 36 36 35 35 33
33 32 32 32 32 32 34 32 32 33 33 34 35 36 33 34 36 37 37 35 35 35 35 36 37 38 39 37 37 37 36 36 35 35 35 35 34 34 34 34 34 37 35 35 39 39 38 38 38 39 39 39 38 37 37 37 37 37 38 37 37 39 39 39 39 39 39 38 38 37 36 35 34 34 35 36 34 35 36 35 36 36 33 33 33
31 31 31 32 32 33 33 33 32 31 32 32 33 32 35 35 34 34 35 35 35 34 34 35 35 34 37 38 36 34 34 34 34 34 34 34 34 34 34 34 34 34 34 34 36 35 35 35 36 37 37 38 37 36 37 37 37 37 37 37 38 37 36 36 36 35 35 35 36 36 35 34 34 33 32 33 33 34 34 33 33 33 32 32 32
32 31 31 31 33 32 32 33 34 33 31 31 31 32 31 34 36 34 34 34 34 34 34 34 34 34 34 35 37 38 35 34 34 35 35 34 34 34 34 34 34 34 34 34 34 34 35 35 36 36 37 36 36 36 38 38 38 38 37 36 36 36 36 36 36 36 34 34 34 33 33 34 34 33 33 31 29 32 31 30 31 30 29 28 31
34 34 32 32 32 31 31 32 33 33 32 31 33 32 31 31 32 34 35 34 34 34 34 34 34 34 34 35 35 34 34 34 35 35 35 34 34 34 34 34 34 34 34 34 34 34 35 36 36 37 36 36 36 37 38 39 38 38 38 37 36 36 37 37 35 35 33 34 34 34 33 32 32 31 31 31 32 32 32 31 32 30 31 30 28
31 33 34 32 32 33 34 34 31 31 31 31 31 31 31 34 33 33 33 33 38 35 34 34 34 34 34 34 34 34 34 34 34 34 34 34 34 34 34 36 35 35 35 35 35 35 36 37 36 36 36 36 36 36 36 36 37 36 36 37 38 38 38 38 36 34 34 34 34 32 32 33 31 31 31 31 31 30 32 29 31 29 28 29 31
31 31 31 32 31 32 32 31 31 31 31 31 29 29 31 32 32 32 32 32 32 32 32 35 34 34 34 34 34 34 34 34 34 34 34 34 34 34 34 38 34 34 36 37 35 34 34 35 35 35 35 34 34 34 35 37 35 35 35 35 36 36 35 34 34 35 34 33 33 32 32 32 33 30 28 28 28 28 28 29 30 31 29 28 28
31 31 33 33 32 32 31 31 31 31 31 30 31 29 30 29 29 30 31 32 32 31 30 31 33 34 34 34 33 34 34 34 34 34 34 34 34 34 34 31 31 31 31 33 33 33 34 35 34 34 34 34 35 34 35 35 35 34 35 34 34 34 34 34 33 34 34 34 33 32 33 32 31 29 30 30 31 29 28 29 29 29 29 28 27
30 30 31 32 32 32 32 30 32 32 30 29 29 29 29 31 29 30 32 30 30 29 28 29 30 36 34 34 35 34 33 33 33 34 34 34 34 34 33 32 32 33 33 33 33 34 34 34 34 35 35 35 34 35 34 35 36 35 34 34 34 34 34 34 33 33 33 32 32 33 32 30 30 30 27 27 27 28 28 28 27 26 26 26 26
31 28 29 32 33 33 32 31 30 31 30 30 30 30 30 30 30 29 29 29 28 29 30 29 31 30 30 31 36 34 34 33 34 33 34 34 33 33 32 32 31 31 32 32 33 33 33 34 34 34 34 34 34 35 35 35 34 34 34 34 34 34 33 33 33 34 32 31 30 30 29 29 28 27 26 25 25 25 26 26 26 24 25 24 23
31 30 30 31 29 30 29 29 29 30 30 30 31 30 29 29 30 29 28 28 29 30 29 29 30 31 31 32 31 34 31 30 30 30 31 31 32 32 32 32 33 32 31 29 31 32 33 34 34 34 33 34 34 34 34 34 35 34 34 34 34 33 32 31 31 30 30 29 29 28 28 27 27 26 26 25 26 26 26 27 26 25 23 22 21
30 30 30 30 28 29 28 28 27 30 28 30 28 29 28 27 27 27 28 27 29 29 29 29 30 31 31 32 32 34 28 28 28 28 29 29 30 31 30 31 32 32 33 33 32 30 33 34 34 35 34 34 34 34 34 34 34 33 33 31 31 31 31 30 30 29 29 29 28 28 28 28 27 26 26 25 25 25 25 25 24 24 23 23 22
30 30 29 29 29 27 28 29 29 30 30 28 27 27 28 27 28 27 27 27 28 28 29 30 29 30 31 32 32 32 30 29 28 29 29 29 29 29 29 30 32 32 32 32 33 31 30 33 33 34 34 33 33 33 34 33 33 32 31 31 30 30 30 30 30 29 29 29 29 28 28 27 27 26 26 25 27 25 24 23 23 22 22 23 23
29 29 28 30 30 29 29 29 29 30 31 31 30 28 29 27 27 27 27 27 26 27 27 28 29 30 31 28 32 32 31 29 29 28 30 29 30 30 29 30 31 31 30 31 31 32 32 31 32 33 33 33 32 32 32 32 31 31 30 30 30 29 29 29 29 29 28 28 28 28 28 28 28 28 27 27 24 24 23 23 23 23 22 21 20
31 29 29 30 30 29 29 30 29 30 30 31 31 30 29 28 29 27 27 27 26 26 26 27 27 28 30 30 32 32 31 29 29 29 29 29 29 29 29 29 29 31 30 30 31 31 31 30 30 30 32 33 33 31 31 31 31 31 30 30 29 29 29 29 29 28 27 27 27 28 28 27 27 27 27 26 24 24 24 23 24 23 22 23 23
31 30 29 29 30 31 31 29 28 28 33 32 33 31 30 30 29 28 27 28 28 29 26 27 27 27 28 31 32 32 28 29 28 28 29 28 28 28 28 30 29 29 30 29 29 28 28 29 29 31 33 34 34 34 33 32 31 30 30 30 30 29 29 29 29 28 27 27 27 27 26 26 25 25 26 25 25 24 24 25 24 23 23 23 21
31 30 29 30 32 30 30 30 29 29 30 31 31 31 31 30 30 28 27 27 28 27 27 27 27 29 27 27 28 27 29 27 27 28 29 27 27 29 27 28 28 29 29 29 30 30 28 26 26 29 30 31 32 33 32 32 33 32 31 30 30 29 29 29 28 28 28 28 27 26 26 25 25 24 24 24 24 25 23 24 24 23 22 24 23
31 30 30 30 28 28 29 26 28 30 30 30 31 30 30 30 30 30 29 27 27 28 29 27 27 28 28 28 27 28 28 27 28 27 27 28 27 26 26 27 28 28 27 27 29 29 27 27 23 24 25 26 29 29 30 31 31 32 32 30 31 30 30 29 30 28 28 29 27 27 26 25 25 25 26 24 23 23 25 25 25 23 24 23 21
35 32 32 30 26 26 28 29 28 30 30 29 30 30 29 29 30 30 30 30 31 30 28 28 28 29 31 30 29 29 28 27 27 27 27 28 28 28 27 29 28 29 27 27 29 29 28 25 23 22 22 22 21 22 21 20 24 26 29 27 27 27 27 27 28 30 29 29 28 28 27 26 25 24 24 24 23 23 24 23 24 24 23 23 22
31 30 30 32 30 28 28 28 29 30 29 29 28 28 29 29 29 29 29 28 28 28 29 29 29 29 29 29 30 30 29 29 28 27 27 28 27 27 29 30 29 28 27 27 27 26 25 24 24 23 19 17 15 15 11 8 9 11 13 21 24 25 25 25 27 28 28 28 28 28 28 26 25 24 24 24 26 23 22 22 22 22 22 21 22
31 30 30 31 29 30 28 26 28 28 29 28 28 26 27 27 28 28 28 28 28 27 28 28 28 30 30 29 28 28 28 30 30 28 27 27 29 31 28 29 29 28 29 28 26 26 25 24 22 20 17 19 12 10 9 16 9 14 14 17 23 22 24 23 25 26 26 29 28 28 28 27 25 25 24 25 23 22 22 23 22 22 20 22 20
30 29 30 30 31 29 28 28 28 27 29 28 27 26 26 27 27 28 28 27 26 26 25 26 26 29 29 28 28 28 28 28 28 29 28 29 27 28 28 30 30 30 29 28 26 26 25 27 24 22 19 15 11 10 13 11 14 10 17 24 22 22 23 22 23 23 26 27 27 27 27 26 25 24 23 24 25 25 24 22 23 22 23 23 24
29 30 30 29 29 28 27 27 27 28 28 28 28 28 25 26 26 26 27 27 26 25 25 27 27 27 29 29 28 30 29 29 28 28 29 28 29 28 30 29 30 31 31 29 27 26 26 25 23 22 20 18 13 10 13 12 13 21 22 21 21 22 22 23 26 24 23 24 27 26 25 25 25 24 23 22 24 23 24 24 25 24 23 22 22